TimeMDT,TemperatureF,Dew PointF,Humidity,Sea Level PressureIn,VisibilityMPH,Wind Direction,Wind SpeedMPH,Gust SpeedMPH,PrecipitationIn,Events,Conditions,WindDirDegrees,DateUTC
12:15 AM,57.7,19.4,23,30.15,10.0,SW,5.8,-,N/A,,Clear,230,2012-10-09 06:15:00
12:55 AM,55.6,20.1,25,30.15,10.0,Calm,Calm,-,N/A,,Clear,0,2012-10-09 06:55:00
1:15 AM,55.4,19.9,25,30.15,10.0,Calm,Calm,-,N/A,,Clear,0,2012-10-09 07:15:00
1:55 AM,54.3,20.3,26,30.15,10.0,Calm,Calm,-,N/A,,Clear,0,2012-10-09 07:55:00
2:15 AM,55.2,20.1,25,30.16,10.0,Calm,Calm,-,N/A,,Clear,0,2012-10-09 08:15:00
2:35 AM,55.4,19.9,25,30.16,10.0,WSW,6.9,-,N/A,,Clear,240,2012-10-09 08:35:00
2:55 AM,55.8,20.8,26,30.16,10.0,Calm,Calm,-,N/A,,Scattered Clouds,0,2012-10-09 08:55:00
3:15 AM,55.8,21.2,26,30.15,10.0,SW,5.8,-,N/A,,Clear,230,2012-10-09 09:15:00
3:35 AM,55.4,21.6,27,30.15,10.0,SW,5.8,-,N/A,,Clear,220,2012-10-09 09:35:00
3:55 AM,53.1,21.9,30,30.15,10.0,SW,8.1,-,N/A,,Scattered Clouds,220,2012-10-09 09:55:00
4:15 AM,55.2,21.2,27,30.15,10.0,SW,9.2,-,N/A,,Scattered Clouds,220,2012-10-09 10:15:00
4:35 AM,56.7,21.0,25,30.15,10.0,SSW,8.1,-,N/A,,Clear,210,2012-10-09 10:35:00
4:55 AM,57.9,20.3,23,30.16,10.0,WSW,4.6,-,N/A,,Clear,250,2012-10-09 10:55:00
5:15 AM,57.6,19.9,23,30.15,10.0,SW,8.1,-,N/A,,Clear,230,2012-10-09 11:15:00
5:55 AM,55.6,19.8,25,30.16,10.0,WSW,8.1,-,N/A,,Clear,240,2012-10-09 11:55:00
6:15 AM,55.2,19.4,25,30.16,10.0,SW,6.9,-,N/A,,Clear,230,2012-10-09 12:15:00
6:35 AM,55.0,19.4,25,30.15,10.0,SW,3.5,-,N/A,,Clear,230,2012-10-09 12:35:00
6:55 AM,50.9,20.5,30,30.17,10.0,Calm,Calm,-,N/A,,Clear,0,2012-10-09 12:55:00
7:15 AM,49.8,20.5,32,30.17,10.0,North,3.5,-,N/A,,Clear,360,2012-10-09 13:15:00
7:35 AM,50.4,20.3,31,30.17,10.0,Calm,Calm,-,N/A,,Clear,0,2012-10-09 13:35:00
7:55 AM,52.3,20.1,28,30.18,10.0,NNW,3.5,-,N/A,,Clear,330,2012-10-09 13:55:00
8:15 AM,53.6,21.0,28,30.19,10.0,West,3.5,-,N/A,,Clear,280,2012-10-09 14:15:00
8:35 AM,55.2,20.3,26,30.19,10.0,Calm,Calm,-,N/A,,Clear,0,2012-10-09 14:35:00
8:55 AM,56.3,20.5,25,30.20,10.0,NNE,3.5,-,N/A,,Clear,20,2012-10-09 14:55:00
9:15 AM,56.3,21.9,26,30.20,10.0,Calm,Calm,-,N/A,,Clear,0,2012-10-09 15:15:00
9:35 AM,56.8,22.5,26,30.21,10.0,NNE,4.6,-,N/A,,Clear,30,2012-10-09 15:35:00
9:55 AM,57.0,21.2,25,30.21,10.0,Calm,Calm,-,N/A,,Clear,0,2012-10-09 15:55:00
10:15 AM,57.6,21.6,25,30.21,10.0,NNE,4.6,-,N/A,,Clear,30,2012-10-09 16:15:00
10:35 AM,59.2,21.0,23,30.21,10.0,East,4.6,-,N/A,,Clear,80,2012-10-09 16:35:00
10:55 AM,61.0,21.0,21,30.21,10.0,ENE,6.9,-,N/A,,Clear,70,2012-10-09 16:55:00
11:15 AM,61.3,21.2,21,30.20,10.0,East,6.9,-,N/A,,Clear,80,2012-10-09 17:15:00
11:35 AM,61.9,21.6,21,30.20,10.0,East,6.9,-,N/A,,Clear,90,2012-10-09 17:35:00
11:55 AM,62.4,22.1,21,30.19,10.0,East,6.9,-,N/A,,Clear,90,2012-10-09 17:55:00
12:15 PM,63.5,22.5,21,30.19,10.0,SE,5.8,-,N/A,,Clear,130,2012-10-09 18:15:00
12:35 PM,63.9,23.4,21,30.19,10.0,East,6.9,-,N/A,,Clear,100,2012-10-09 18:35:00
12:55 PM,64.6,23.4,21,30.18,10.0,East,5.8,-,N/A,,Clear,90,2012-10-09 18:55:00
1:15 PM,64.4,23.4,21,30.18,10.0,East,5.8,-,N/A,,Clear,80,2012-10-09 19:15:00
1:35 PM,64.4,23.2,21,30.17,10.0,ESE,3.5,-,N/A,,Clear,120,2012-10-09 19:35:00
1:55 PM,65.8,23.2,20,30.16,10.0,ESE,5.8,-,N/A,,Clear,120,2012-10-09 19:55:00
2:15 PM,66.9,22.3,18,30.15,10.0,NNE,3.5,-,N/A,,Clear,20,2012-10-09 20:15:00
2:35 PM,68.5,22.3,17,30.14,10.0,ESE,4.6,-,N/A,,Clear,110,2012-10-09 20:35:00
2:55 PM,70.5,18.3,14,30.13,10.0,West,10.4,18.4,N/A,,Clear,270,2012-10-09 20:55:00
3:15 PM,72.0,16.3,12,30.13,10.0,West,12.7,25.3,N/A,,Clear,260,2012-10-09 21:15:00
3:35 PM,69.8,20.5,15,30.13,10.0,NW,4.6,20.7,N/A,,Clear,320,2012-10-09 21:35:00
3:55 PM,72.0,17.8,13,30.13,10.0,West,10.4,16.1,N/A,,Clear,260,2012-10-09 21:55:00
4:15 PM,71.1,17.2,13,30.13,10.0,West,15.0,18.4,N/A,,Clear,270,2012-10-09 22:15:00
4:35 PM,70.9,18.0,13,30.13,10.0,WNW,10.4,19.6,N/A,,Clear,290,2012-10-09 22:35:00
4:55 PM,70.9,18.1,13,30.13,10.0,WSW,12.7,16.1,N/A,,Clear,250,2012-10-09 22:55:00
5:15 PM,70.3,18.3,14,30.14,10.0,West,12.7,18.4,N/A,,Clear,270,2012-10-09 23:15:00
5:35 PM,70.3,18.0,14,30.15,10.0,WSW,11.5,18.4,N/A,,Clear,250,2012-10-09 23:35:00
5:55 PM,69.8,17.8,14,30.15,10.0,WSW,11.5,19.6,N/A,,Clear,250,2012-10-09 23:55:00
6:15 PM,68.7,17.4,14,30.15,10.0,WSW,12.7,-,N/A,,Clear,250,2012-10-10 00:15:00
6:35 PM,67.1,16.5,14,30.16,10.0,West,13.8,19.6,N/A,,Clear,260,2012-10-10 00:35:00
6:55 PM,66.6,16.2,14,30.17,10.0,West,9.2,-,N/A,,Clear,260,2012-10-10 00:55:00
7:15 PM,64.9,18.1,17,30.18,10.0,WSW,6.9,-,N/A,,Clear,240,2012-10-10 01:15:00
7:35 PM,63.9,18.5,17,30.18,10.0,SW,9.2,-,N/A,,Clear,220,2012-10-10 01:35:00
7:55 PM,62.6,19.0,19,30.19,10.0,SSW,8.1,-,N/A,,Clear,210,2012-10-10 01:55:00
8:15 PM,62.4,19.0,19,30.19,10.0,SW,5.8,-,N/A,,Clear,230,2012-10-10 02:15:00
8:35 PM,63.7,19.4,18,30.20,10.0,Calm,Calm,-,N/A,,Clear,0,2012-10-10 02:35:00
8:55 PM,63.3,19.4,18,30.21,10.0,West,8.1,-,N/A,,Clear,260,2012-10-10 02:55:00
9:15 PM,62.4,19.4,19,30.21,10.0,West,11.5,-,N/A,,Clear,270,2012-10-10 03:15:00
9:35 PM,63.1,19.4,19,30.22,10.0,West,10.4,-,N/A,,Clear,280,2012-10-10 03:35:00
9:55 PM,63.0,19.9,19,30.22,10.0,WNW,8.1,-,N/A,,Clear,290,2012-10-10 03:55:00
10:15 PM,63.3,20.3,19,30.22,10.0,WNW,6.9,-,N/A,,Clear,290,2012-10-10 04:15:00
10:35 PM,59.9,20.8,22,30.22,10.0,SE,5.8,-,N/A,,Clear,140,2012-10-10 04:35:00
10:55 PM,61.2,20.5,21,30.23,10.0,Calm,Calm,-,N/A,,Clear,0,2012-10-10 04:55:00
11:15 PM,61.2,20.3,21,30.23,10.0,Calm,Calm,-,N/A,,Clear,0,2012-10-10 05:15:00
11:35 PM,62.2,19.9,20,30.23,10.0,Calm,Calm,-,N/A,,Clear,0,2012-10-10 05:35:00
11:55 PM,57.9,21.2,24,30.23,10.0,WSW,3.5,-,N/A,,Clear,240,2012-10-10 05:55:00